[[{"header":{"parameterUnit":"m.s-1","parameterCategory":2,"la1":30.2991,"la2":30.254,"lo1":-89.0895,"lo2":-89.0444,"dy":0.0017,"dx":0.0017,"nx":28,"ny":28,"refTime":"2023-09-22T21:00:00:Z","depth":"0","parameterNumber":2,"parameterNumberName":"U-component_of_CURRENTS"},"data":[0,0,0,0,0,0,0,0,0,0,0,0,0,0,0,0,0,0,0,0,0,0,0,0,0,0,0,0,0,0,0,0,0,0,0,0,0,0,0,0,0,0,0,0,0,0,0,0,0,0,0,0,0,0,0,0,0,0,0.3998,0.3999,0,0.3993,0.3993,0.3993,0.3976,0.3976,0.3976,0.3975,0.3953,0.3952,0.3952,0,0,0,0,0,0,0,0,0,0,0,0,0,0.3979,0.3979,0.3998,0.3999,0.3999,0.3993,0.3993,0.3993,0.3976,0.3976,0.3976,0.3975,0.3953,0.3953,0.3952,0,0,0,0,0,0,0,0,0,0,0,0,0,0.398,0.3979,0.3998,0.3991,0.399,0.3993,0.3993,0.3993,0.3976,0.3976,0.3976,0.3975,0.3953,0.3953,0.3952,0.3954,0,0,0.395,0.395,0,0,0,0,0,0,0,0,0.398,0.3981,0.3992,0.3992,0.3991,0.3987,0.3978,0.398,0.3976,0.398,0.3975,0.3975,0.3964,0.3963,0.396,0.3953,0.3952,0.395,0.395,0.3949,0.3949,0,0,0,0,0,0,0,0.398,0.3981,0.3994,0.3992,0.3992,0.3983,0.3983,0.3978,0.3972,0.3979,0.3979,0.3981,0.3963,0.396,0.3959,0.3952,0.395,0.395,0.3949,0.3949,0.4001,0.4002,0,0,0,0,0,0,0.3986,0.3981,0.3995,0.3995,0.3987,0.3984,0.3984,0.3987,0.3972,0.397,0.3981,0.398,0.3962,0.396,0.3958,0.4008,0.3949,0.3949,0.3948,0.3999,0.4001,0.4003,0,0,0,0,0,0,0.3985,0.3987,0.3995,0.3989,0.399,0.3985,0.3988,0.3987,0.3989,0.3974,0.3972,0.3986,0.3961,0.3959,0.3974,0.4005,0.3949,0.3948,0.3997,0.4,0.4002,0.4076,0,0,0,0,0,0,0.3985,0.3987,0.3988,0.3989,0.399,0.4003,0.3989,0.3987,0.3991,0.399,0.3977,0.3974,0.3961,0.3976,0.3974,0.4003,0.3947,0.3995,0.3998,0.4001,0.4072,0.4081,0.4089,0,0,0,0,0,0.3984,0.3982,0.3988,0.3989,0.3993,0.4004,0.4003,0.3997,0.3992,0.3997,0.3999,0.3975,0.3995,0.3977,0.3974,0.4004,0.3993,0.3997,0.4001,0.4068,0.4079,0.4089,0,0,0,0,0,0,0.3958,0.3981,0.3987,0.3987,0.4001,0.4002,0.4004,0.4003,0.4007,0.4009,0.3993,0.3991,0.402,0.4002,0.3982,0.403,0.3992,0.3996,0.4044,0.4054,0.4063,0.4089,0.3947,0,0,0,0,0,0.3959,0.3973,0.3988,0.399,0.4001,0.4007,0.4009,0.4011,0.4017,0.4018,0.4007,0.401,0.4034,0.4035,0.4041,0.406,0.4093,0.408,0.4089,0.4097,0.4118,0.4203,0.4223,0.4016,0.4016,0.4016,0,0,0.3948,0.3963,0.3969,0.3988,0.3999,0.4017,0.4007,0.402,0.404,0.4015,0.4031,0.4038,0.4047,0.4079,0.4089,0.4066,0.4174,0.4102,0.4108,0.4125,0.421,0.423,0.4248,0.4019,0.4018,0.4018,0,0,0.3939,0.3953,0.3967,0.3984,0.401,0.4023,0.4031,0.404,0.4053,0.4074,0.4077,0.411,0.4108,0.4138,0.4153,0.4214,0.4222,0.4207,0.4268,0.4351,0.4369,0.4385,0.4463,0.4485,0.4207,0.4208,0.4208,0,0.3926,0.3947,0.397,0.3989,0.4007,0.403,0.405,0.4071,0.4081,0.4113,0.4087,0.415,0.4147,0.4227,0.4251,0.4236,0.4283,0.4225,0.4365,0.4381,0.4397,0.4472,0.4496,0.4212,0.4211,0.4211,0.421,0,0.3934,0.3951,0.3962,0.4003,0.4025,0.4047,0.4088,0.4118,0.4135,0.416,0.4231,0.4241,0.4284,0.4291,0.429,0.4402,0.4401,0.437,0.434,0.4423,0.4496,0.4519,0.4217,0.4216,0.4215,0.4214,0,0,0.3906,0.3958,0.3963,0.399,0.4039,0.4061,0.4119,0.4188,0.4246,0.4265,0.4341,0.439,0.4405,0.4425,0.4432,0.4501,0.4648,0.4488,0.449,0.4569,0.4845,0.4779,0.4799,0.4647,0.4651,0.4654,0.4856,0,0.3909,0.3945,0.3975,0.402,0.4047,0.4103,0.4158,0.4227,0.4284,0.4361,0.4418,0.448,0.4455,0.4486,0.4558,0.4627,0.4713,0.4597,0.475,0.4755,0.469,0.4825,0.4586,0.474,0.4879,0.4883,0.4886,0,0.3906,0.3938,0.3977,0.4051,0.4071,0.4105,0.4223,0.4274,0.4402,0.4452,0.4538,0.4575,0.4694,0.4645,0.4829,0.4759,0.4821,0.4866,0.4874,0.4805,0.4733,0.4678,0.4777,0.4694,0.4922,0.4919,0.4917,0,0.3876,0.3939,0.3975,0.3996,0.4083,0.4129,0.4184,0.4303,0.4379,0.4516,0.459,0.471,0.4791,0.4886,0.4981,0.4921,0.5185,0.5102,0.5109,0.5104,0.4927,0.4899,0.4965,0.5254,0.5254,0.5253,0.5253,0,0.3861,0.3888,0.3968,0.3985,0.4055,0.4119,0.4215,0.4294,0.4433,0.4531,0.463,0.4738,0.4862,0.5008,0.5058,0.5181,0.5255,0.5167,0.517,0.4945,0.4918,0.4854,0.4799,0.5261,0.5259,0.5258,0.5256,0,0.3809,0.3856,0.3907,0.4004,0.4035,0.4085,0.4215,0.4285,0.4427,0.4563,0.4612,0.4817,0.5003,0.5129,0.5315,0.5288,0.5251,0.5417,0.5147,0.5113,0.4961,0.4917,0.4817,0.4673,0.5433,0.5433,0.5433,0,0.3777,0.3801,0.3902,0.3931,0.3971,0.4058,0.4111,0.4258,0.4334,0.4599,0.4652,0.4905,0.5036,0.53,0.5322,0.5426,0.5296,0.5257,0.5082,0.497,0.4924,0.4725,0.4596,0.4887,0.4882,0.4879,0.4876,0,0.3732,0.3778,0.3822,0.3885,0.3937,0.3999,0.4085,0.4154,0.4333,0.446,0.4655,0.4795,0.5048,0.5058,0.5209,0.5226,0.498,0.518,0.5135,0.458,0.4297,0.4152,0.4749,0.4842,0.4845,0.4848,0.485,0.4851,0.3697,0.3725,0.3789,0.383,0.3881,0.3915,0.3922,0.4029,0.4142,0.4278,0.452,0.464,0.4776,0.4937,0.4943,0.4816,0.4783,0.4653,0.4641,0.4475,0.4226,0.476,0.4801,0.4804,0.4807,0.4809,0.4811,0,0.3634,0.3675,0.3725,0.3762,0.375,0.3812,0.3872,0.385,0.3901,0.409,0.4225,0.4335,0.4379,0.4485,0.4466,0.4306,0.4065,0.4206,0.387,0.3793,0.4347,0.4212,0.4039,0.4039,0.4039,0.4039,0.404,0.404,0.3612,0.3619,0.3642,0.3607,0.3617,0.3554,0.3546,0.3545,0.3633,0.3675,0.372,0.3847,0.4077,0.42,0.4112,0.3997,0.3705,0.3496,0.3546,0.3955,0.3994,0.4031,0.3895,0.3658,0.3657,0.278,0.2774,0.2769]},{"header":{"parameterUnit":"m.s-1","parameterCategory":2,"la1":30.2991,"la2":30.254,"lo1":-89.0895,"lo2":-89.0444,"dy":0.0017,"dx":0.0017,"nx":28,"ny":28,"refTime":"2023-09-22T21:00:00:Z","depth":"0","parameterNumber":3,"parameterNumberName":"V-component_of_CURRENTS"},"data":[0,0,0,0,0,0,0,0,0,0,0,0,0,0,0,0,0,0,0,0,0,0,0,0,0,0,0,0,0,0,0,0,0,0,0,0,0,0,0,0,0,0,0,0,0,0,0,0,0,0,0,0,0,0,0,0,0,0,-0.0175,-0.0176,0,-0.0244,-0.0245,-0.0246,-0.0292,-0.0292,-0.0292,-0.0292,-0.0379,-0.0381,-0.0383,0,0,0,0,0,0,0,0,0,0,0,0,0,-0.0122,-0.0122,-0.0175,-0.0176,-0.0176,-0.0244,-0.0245,-0.0246,-0.0292,-0.0292,-0.0292,-0.0292,-0.0378,-0.0381,-0.0383,0,0,0,0,0,0,0,0,0,0,0,0,0,-0.0166,-0.0123,-0.0175,-0.0205,-0.0208,-0.0244,-0.0245,-0.0247,-0.0292,-0.0292,-0.0292,-0.0292,-0.0377,-0.038,-0.0384,-0.0404,0,0,-0.0394,-0.0396,0,0,0,0,0,0,0,0,-0.0163,-0.0168,-0.02,-0.0203,-0.0206,-0.0257,-0.0258,-0.0299,-0.0292,-0.0264,-0.0292,-0.0292,-0.0337,-0.0344,-0.0361,-0.0408,-0.0412,-0.0395,-0.0397,-0.0398,-0.0399,0,0,0,0,0,0,0,-0.016,-0.0166,-0.0206,-0.0201,-0.0204,-0.0228,-0.0234,-0.0266,-0.0302,-0.0266,-0.0269,-0.0271,-0.034,-0.0358,-0.0364,-0.0413,-0.0394,-0.0397,-0.04,-0.0401,-0.0484,-0.0484,0,0,0,0,0,0,-0.0143,-0.0163,-0.0204,-0.0208,-0.0181,-0.0228,-0.0235,-0.0243,-0.0302,-0.031,-0.0271,-0.0273,-0.0352,-0.036,-0.0367,-0.0377,-0.0398,-0.0401,-0.0403,-0.0484,-0.0484,-0.0484,0,0,0,0,0,0,-0.0142,-0.0146,-0.0201,-0.0184,-0.0192,-0.0228,-0.0237,-0.0244,-0.0255,-0.0305,-0.0314,-0.0272,-0.0352,-0.0362,-0.0387,-0.0381,-0.0403,-0.0406,-0.0484,-0.0484,-0.0484,-0.0407,0,0,0,0,0,0,-0.014,-0.0146,-0.0144,-0.0183,-0.0192,-0.0204,-0.0237,-0.0246,-0.0255,-0.0258,-0.0309,-0.0317,-0.0353,-0.0382,-0.039,-0.0386,-0.0409,-0.0483,-0.0484,-0.0484,-0.041,-0.0405,-0.0401,0,0,0,0,0,-0.0138,-0.013,-0.0144,-0.0148,-0.0189,-0.0203,-0.021,-0.0238,-0.0255,-0.025,-0.029,-0.0315,-0.039,-0.0384,-0.0395,-0.0391,-0.0483,-0.0484,-0.0484,-0.0412,-0.0406,-0.0401,0,0,0,0,0,0,-0.0101,-0.0135,-0.015,-0.0152,-0.0168,-0.0209,-0.0209,-0.023,-0.0259,-0.0264,-0.0314,-0.0325,-0.0346,-0.0381,-0.0373,-0.0418,-0.0443,-0.0445,-0.0384,-0.0379,-0.0375,-0.0344,-0.0411,0,0,0,0,0,-0.0092,-0.0098,-0.0129,-0.0128,-0.0135,-0.0171,-0.0181,-0.0198,-0.0229,-0.0242,-0.0277,-0.032,-0.0358,-0.0376,-0.0412,-0.0433,-0.0449,-0.044,-0.0436,-0.0432,-0.0415,-0.0456,-0.0454,-0.0485,-0.0485,-0.0485,0,0,-0.0077,-0.0095,-0.0099,-0.012,-0.014,-0.0136,-0.0178,-0.0184,-0.0181,-0.0247,-0.0255,-0.0302,-0.036,-0.0384,-0.0397,-0.041,-0.0425,-0.0432,-0.0428,-0.0414,-0.0456,-0.0453,-0.045,-0.0485,-0.0485,-0.0485,0,0,-0.004,-0.0067,-0.0055,-0.0063,-0.008,-0.0105,-0.01,-0.0133,-0.015,-0.0164,-0.0216,-0.0258,-0.0305,-0.0351,-0.038,-0.0375,-0.0399,-0.0387,-0.034,-0.038,-0.0378,-0.0375,-0.0358,-0.0355,-0.0387,-0.0386,-0.0386,0,-0.0018,-0.001,-0.005,-0.0034,-0.0033,-0.0083,-0.0061,-0.0086,-0.012,-0.0129,-0.0153,-0.0235,-0.0291,-0.0327,-0.0331,-0.0363,-0.0367,-0.0352,-0.0372,-0.0371,-0.037,-0.0353,-0.0351,-0.0383,-0.0383,-0.0384,-0.0384,0,0.0032,0.004,0.0049,0.0047,0.0043,0.0052,0.0019,0.001,-0.002,-0.0047,-0.0082,-0.0161,-0.0207,-0.0242,-0.0286,-0.031,-0.0306,-0.0358,-0.0378,-0.0362,-0.0345,-0.0344,-0.0378,-0.0379,-0.038,-0.0381,0,0,0.0077,0.0082,0.0088,0.0106,0.0087,0.0093,0.0092,0.0079,0.0093,0.0034,0.0044,-0.0056,-0.0098,-0.0135,-0.0203,-0.0249,-0.0252,-0.0292,-0.0296,-0.0259,-0.0289,-0.0245,-0.0239,-0.0306,-0.0306,-0.0306,-0.0267,0,0.013,0.018,0.0164,0.0212,0.0231,0.0194,0.0203,0.0184,0.0157,0.0155,0.0058,0.0034,-0.0057,-0.0078,-0.0137,-0.0218,-0.0251,-0.0254,-0.0324,-0.0324,-0.0277,-0.0238,-0.0225,-0.0186,-0.0266,-0.0266,-0.0266,0,0.0191,0.0212,0.0268,0.0294,0.0301,0.0325,0.0335,0.0341,0.031,0.0288,0.0241,0.0174,0.0107,0.0017,-0.0096,-0.0088,-0.0176,-0.0248,-0.025,-0.0234,-0.028,-0.0226,-0.0182,-0.0402,-0.0264,-0.0265,-0.0265,0,0.0249,0.029,0.0337,0.0347,0.0364,0.0389,0.04,0.0387,0.0414,0.0381,0.0408,0.0298,0.0278,0.0138,0.0005,-0.0049,-0.0096,-0.0199,-0.0237,-0.0233,-0.0247,-0.0244,-0.0414,-0.0285,-0.0285,-0.0285,-0.0285,0,0.0312,0.0354,0.0374,0.0405,0.0475,0.046,0.0535,0.0526,0.0545,0.062,0.0492,0.0547,0.0304,0.0248,0.0082,-0.0024,-0.0034,-0.0199,-0.0222,-0.0216,-0.021,-0.0425,-0.056,-0.0284,-0.0284,-0.0284,-0.0285,0,0.0376,0.0385,0.0448,0.0485,0.0509,0.0563,0.0644,0.07,0.0702,0.0806,0.0806,0.0746,0.0693,0.0486,0.0293,0.0114,-0.0136,-0.0074,-0.0012,-0.0029,-0.0308,-0.0437,-0.0587,-0.0676,-0.0126,-0.0125,-0.0124,0,0.0413,0.0449,0.0521,0.0576,0.0605,0.0685,0.075,0.0775,0.0858,0.0965,0.1039,0.1011,0.1056,0.0819,0.0486,0.0233,-0.0023,0.0032,-0.0105,-0.0292,-0.0455,-0.0553,-0.0625,-0.0082,-0.008,-0.0079,-0.0078,0,0.0484,0.0508,0.0564,0.0679,0.0764,0.0865,0.0974,0.1068,0.114,0.1266,0.1452,0.1504,0.129,0.1051,0.0662,0.0443,-0.0122,0.0047,-0.0193,-0.0455,-0.053,-0.0634,-0.0104,-0.0069,-0.0069,-0.007,-0.0071,-0.0071,0.0544,0.0601,0.0683,0.0798,0.0902,0.1052,0.1166,0.1321,0.1517,0.1747,0.1791,0.1955,0.1514,0.1007,0.0669,0.0012,-0.0023,-0.0238,-0.0376,-0.0455,-0.0561,0.0035,0.0063,0.0063,0.0063,0.0062,0.0062,0,0.0623,0.0692,0.0799,0.0947,0.1084,0.1117,0.1321,0.1467,0.1752,0.2008,0.2217,0.2154,0.1621,0.1017,0.014,-0.0343,-0.0557,-0.0622,-0.0813,-0.0868,-0.0377,-0.0399,-0.0414,-0.0413,-0.0413,-0.0413,-0.0413,-0.0412,0.067,0.0787,0.0844,0.1082,0.1192,0.1386,0.1514,0.176,0.1984,0.2343,0.2507,0.2587,0.212,0.0538,-0.0564,-0.0828,-0.1178,-0.124,-0.1412,-0.115,-0.1127,-0.1105,-0.116,-0.1334,-0.1336,-0.1852,-0.1858,-0.1862]}],[{"header":{"parameterUnit":"m.s-1","parameterCategory":2,"la1":30.2991,"la2":30.254,"lo1":-89.0895,"lo2":-89.0444,"dy":0.0017,"dx":0.0017,"nx":28,"ny":28,"refTime":"2023-09-22T21:00:00:Z","depth":"2","parameterNumber":2,"parameterNumberName":"U-component_of_CURRENTS"},"data":[0,0,0,0,0,0,0,0,0,0,0,0,0,0,0,0,0,0,0,0,0,0,0,0,0,0,0,0,0,0,0,0,0,0,0,0,0,0,0,0,0,0,0,0,0,0,0,0,0,0,0,0,0,0,0,0,0,0,0.2871,0.2872,0,0.2866,0.2865,0.2865,0.2906,0.2907,0.2909,0.2911,0.2979,0.2979,0.2979,0,0,0,0,0,0,0,0,0,0,0,0,0,0.2859,0.2859,0.2871,0.2872,0.2872,0.2866,0.2865,0.2865,0.2905,0.2907,0.291,0.2912,0.2979,0.2979,0.2979,0,0,0,0,0,0,0,0,0,0,0,0,0,0.2854,0.2859,0.2871,0.2897,0.29,0.2866,0.2865,0.2864,0.2905,0.2907,0.291,0.2913,0.2979,0.2979,0.2979,0.2928,0,0,0.298,0.298,0,0,0,0,0,0,0,0,0.2854,0.2853,0.2892,0.2895,0.2898,0.2895,0.2886,0.2892,0.2904,0.2896,0.2911,0.2914,0.296,0.2962,0.2944,0.2931,0.2934,0.298,0.298,0.298,0.298,0,0,0,0,0,0,0,0.2854,0.2853,0.2862,0.2893,0.2896,0.289,0.2891,0.2886,0.2909,0.2897,0.2901,0.291,0.2962,0.2944,0.2947,0.2935,0.298,0.298,0.298,0.2981,0.3063,0.3065,0,0,0,0,0,0,0.2869,0.2854,0.2863,0.2863,0.289,0.2888,0.289,0.2888,0.2908,0.2915,0.2908,0.2913,0.2942,0.2946,0.295,0.3044,0.298,0.2981,0.2981,0.3061,0.3064,0.3066,0,0,0,0,0,0,0.2868,0.2869,0.2863,0.2864,0.2864,0.2887,0.2883,0.2886,0.2904,0.2917,0.2925,0.2928,0.2944,0.2949,0.3,0.3042,0.2981,0.2981,0.3059,0.3062,0.3065,0.3135,0,0,0,0,0,0,0.2867,0.2868,0.2875,0.2865,0.2865,0.2899,0.2882,0.2885,0.2907,0.2913,0.2936,0.2943,0.2947,0.3,0.3,0.3041,0.2981,0.3056,0.306,0.3064,0.313,0.314,0.3149,0,0,0,0,0,0.2866,0.2865,0.2875,0.2877,0.2872,0.2902,0.2902,0.2921,0.2906,0.2938,0.2951,0.2944,0.3025,0.3001,0.3001,0.3043,0.3054,0.3059,0.3064,0.3126,0.3138,0.3149,0,0,0,0,0,0,0.286,0.2869,0.288,0.2881,0.292,0.2913,0.2921,0.293,0.2954,0.2959,0.2959,0.2968,0.3031,0.3024,0.2997,0.3081,0.3041,0.3046,0.3089,0.3101,0.311,0.3116,0.2981,0,0,0,0,0,0.2862,0.2866,0.2891,0.2898,0.2909,0.2914,0.2924,0.295,0.2966,0.2978,0.2987,0.3005,0.3038,0.3062,0.3082,0.3114,0.3128,0.3146,0.3156,0.3163,0.3171,0.3245,0.3262,0.3081,0.3081,0.3081,0,0,0.286,0.2867,0.287,0.2899,0.2905,0.293,0.2926,0.2959,0.2993,0.298,0.3014,0.3035,0.3054,0.3109,0.3135,0.3115,0.3221,0.3169,0.3176,0.3179,0.3252,0.3269,0.3285,0.3084,0.3084,0.3083,0,0,0.2859,0.2865,0.2872,0.2905,0.2947,0.2955,0.2975,0.2994,0.3022,0.3062,0.307,0.3121,0.3142,0.318,0.3197,0.3264,0.3267,0.3276,0.3328,0.3401,0.3417,0.343,0.3464,0.348,0.3282,0.3282,0.3282,0,0.286,0.2871,0.2887,0.2911,0.2939,0.2968,0.3001,0.3025,0.3068,0.3102,0.3095,0.3161,0.3175,0.3256,0.329,0.3285,0.3318,0.3282,0.3414,0.3428,0.3441,0.3472,0.3489,0.3286,0.3286,0.3285,0.3285,0,0.2874,0.289,0.2895,0.2931,0.2972,0.3006,0.3055,0.31,0.312,0.3151,0.3239,0.3262,0.3314,0.3328,0.3327,0.3434,0.3425,0.3416,0.3384,0.3463,0.3491,0.3507,0.3292,0.329,0.3289,0.3288,0,0,0.2846,0.2894,0.2899,0.2927,0.2991,0.3024,0.3089,0.3165,0.3214,0.3265,0.334,0.3394,0.342,0.3442,0.3461,0.3517,0.3629,0.3514,0.3516,0.3544,0.3781,0.3707,0.3717,0.3657,0.3661,0.3664,0.376,0,0.2854,0.2895,0.2927,0.298,0.3004,0.307,0.3128,0.3213,0.3272,0.3353,0.3415,0.3491,0.3462,0.3512,0.3566,0.3619,0.3678,0.3602,0.3703,0.3705,0.3628,0.3736,0.344,0.3497,0.3776,0.3779,0.3781,0,0.2854,0.2887,0.2934,0.3012,0.303,0.3078,0.3191,0.3252,0.3379,0.344,0.3532,0.3584,0.369,0.3654,0.3777,0.3738,0.3772,0.3795,0.3799,0.3717,0.3662,0.3465,0.3516,0.3808,0.3806,0.3804,0.3802,0,0.2822,0.2888,0.2925,0.2952,0.3045,0.3099,0.3161,0.3282,0.3354,0.3513,0.3592,0.3705,0.3785,0.385,0.3897,0.3864,0.402,0.3975,0.3934,0.3927,0.3686,0.3652,0.4076,0.4076,0.4076,0.4075,0.4075,0,0.2805,0.2835,0.2915,0.2937,0.3018,0.309,0.3175,0.3279,0.3413,0.3504,0.3637,0.3736,0.3848,0.3943,0.3959,0.4,0.4075,0.3967,0.3966,0.37,0.3669,0.394,0.3922,0.4079,0.4078,0.4078,0.4077,0,0.2754,0.28,0.2845,0.2948,0.2997,0.3054,0.3185,0.3238,0.3391,0.3525,0.3596,0.3798,0.3926,0.4006,0.4121,0.4077,0.4122,0.4118,0.3783,0.374,0.3959,0.3944,0.408,0.4079,0.4077,0.4076,0.4076,0,0.2724,0.2742,0.2844,0.288,0.293,0.3015,0.3074,0.3226,0.3295,0.3539,0.3611,0.3814,0.3906,0.4048,0.4048,0.4079,0.414,0.3805,0.3683,0.3984,0.3969,0.3956,0.3944,0.3383,0.3377,0.3372,0.3368,0,0.2679,0.2712,0.2747,0.2831,0.2896,0.2949,0.3056,0.3091,0.326,0.3389,0.3546,0.3647,0.3827,0.3745,0.3825,0.3792,0.3772,0.3699,0.4135,0.3431,0.3336,0.3318,0.3327,0.3321,0.3325,0.3329,0.3331,0.3333,0.2632,0.2645,0.2698,0.2761,0.2836,0.2862,0.2844,0.2937,0.3018,0.3142,0.3338,0.3399,0.3488,0.3463,0.338,0.3332,0.3578,0.34,0.3412,0.3431,0.3337,0.3245,0.3193,0.3196,0.32,0.3203,0.3205,0,0.2559,0.2587,0.2635,0.2678,0.2676,0.2784,0.2816,0.2745,0.2748,0.2911,0.3008,0.2842,0.284,0.2932,0.2796,0.2807,0.274,0.2683,0.2562,0.2613,0.2658,0.2518,0.2161,0.2157,0.2153,0.215,0,0,0.2527,0.2519,0.2533,0.2505,0.2536,0.2497,0.2464,0.2409,0.2457,0.2419,0.2458,0.2712,0.2854,0.2466,0.2432,0.2267,0.2406,0.2179,0.3029,0.2938,0.2977,0.31,0.2949,0,0,0,0,0]},{"header":{"parameterUnit":"m.s-1","parameterCategory":2,"la1":30.2991,"la2":30.254,"lo1":-89.0895,"lo2":-89.0444,"dy":0.0017,"dx":0.0017,"nx":28,"ny":28,"refTime":"2023-09-22T21:00:00:Z","depth":"2","parameterNumber":3,"parameterNumberName":"V-component_of_CURRENTS"},"data":[0,0,0,0,0,0,0,0,0,0,0,0,0,0,0,0,0,0,0,0,0,0,0,0,0,0,0,0,0,0,0,0,0,0,0,0,0,0,0,0,0,0,0,0,0,0,0,0,0,0,0,0,0,0,0,0,0,0,0.0136,0.0135,0,0.0071,0.0071,0.007,0.0017,0.0017,0.0016,0.0016,-0.0089,-0.0092,-0.0094,0,0,0,0,0,0,0,0,0,0,0,0,0,0.0179,0.0179,0.0136,0.0135,0.0134,0.0072,0.0071,0.007,0.0017,0.0017,0.0016,0.0015,-0.0089,-0.0091,-0.0094,0,0,0,0,0,0,0,0,0,0,0,0,0,0.0143,0.0179,0.0136,0.01,0.0096,0.0072,0.0071,0.007,0.0018,0.0017,0.0016,0.0015,-0.0088,-0.0091,-0.0094,-0.0098,0,0,-0.0105,-0.0106,0,0,0,0,0,0,0,0,0.0145,0.0141,0.0106,0.0103,0.0098,0.0051,0.0047,0.0011,0.0018,0.0048,0.0016,0.0015,-0.0046,-0.0053,-0.0062,-0.0103,-0.0107,-0.0105,-0.0107,-0.0109,-0.011,0,0,0,0,0,0,0,0.0148,0.0144,0.0111,0.0106,0.0101,0.0075,0.007,0.004,0.0006,0.0045,0.0041,0.0034,-0.0048,-0.0058,-0.0065,-0.0109,-0.0105,-0.0108,-0.011,-0.0111,-0.0183,-0.0183,0,0,0,0,0,0,0.0158,0.0146,0.0113,0.0109,0.0119,0.0076,0.0069,0.0068,0.0007,-0.0002,0.0034,0.0031,-0.0052,-0.0061,-0.0069,-0.0082,-0.0109,-0.0112,-0.0114,-0.0183,-0.0183,-0.0183,0,0,0,0,0,0,0.0159,0.0156,0.0116,0.0125,0.0118,0.0076,0.0075,0.0067,0.0052,-0.0,-0.0011,0.0027,-0.0053,-0.0064,-0.0096,-0.0086,-0.0113,-0.0116,-0.0183,-0.0183,-0.0183,-0.0105,0,0,0,0,0,0,0.0161,0.0157,0.0159,0.0126,0.0118,0.0102,0.0075,0.0066,0.0049,0.0044,-0.001,-0.002,-0.0055,-0.009,-0.0099,-0.0091,-0.0119,-0.0183,-0.0183,-0.0183,-0.0107,-0.0102,-0.0097,0,0,0,0,0,0.0163,0.0172,0.0159,0.0155,0.0123,0.0102,0.0096,0.0062,0.005,0.0046,0.001,-0.0019,-0.0095,-0.0093,-0.0103,-0.0096,-0.0183,-0.0183,-0.0183,-0.011,-0.0103,-0.0097,0,0,0,0,0,0,0.0189,0.0167,0.0152,0.0153,0.0129,0.0093,0.009,0.0067,0.0037,0.0034,-0.0016,-0.0029,-0.0055,-0.0087,-0.0083,-0.0117,-0.0144,-0.0146,-0.0086,-0.008,-0.0075,-0.0045,-0.0122,0,0,0,0,0,0.0198,0.0201,0.0169,0.017,0.0163,0.0128,0.0115,0.0093,0.0063,0.0049,0.0012,-0.0027,-0.006,-0.0078,-0.0113,-0.0129,-0.0156,-0.0133,-0.0127,-0.0123,-0.0107,-0.0141,-0.0137,-0.0182,-0.0182,-0.0182,0,0,0.0207,0.0196,0.0197,0.0176,0.0158,0.0158,0.0119,0.0106,0.0106,0.0042,0.0033,-0.0012,-0.0061,-0.008,-0.0095,-0.0106,-0.0126,-0.0122,-0.0118,-0.0104,-0.014,-0.0136,-0.0132,-0.0181,-0.0181,-0.0181,0,0,0.0234,0.0222,0.0234,0.0221,0.0199,0.018,0.0179,0.0145,0.0131,0.0113,0.0068,0.0036,-0.0015,-0.0043,-0.0065,-0.0051,-0.0099,-0.0072,-0.0019,-0.0052,-0.0048,-0.0045,-0.0076,-0.0076,-0.0067,-0.0067,-0.0067,0,0.0245,0.0259,0.0233,0.0242,0.0242,0.0196,0.0211,0.0192,0.0151,0.0149,0.0119,0.0056,0.0009,-0.0007,-0.0007,-0.0037,-0.0067,-0.0036,-0.0043,-0.0041,-0.0039,-0.0072,-0.0073,-0.0063,-0.0063,-0.0064,-0.0064,0,0.0281,0.0291,0.03,0.0302,0.0297,0.0302,0.0276,0.0269,0.0246,0.0224,0.02,0.0136,0.0102,0.0075,0.0037,0.0027,-0.0003,-0.0033,-0.0053,-0.003,-0.0066,-0.0069,-0.0057,-0.0059,-0.006,-0.0061,0,0,0.0311,0.0323,0.0328,0.0349,0.0332,0.034,0.0345,0.0343,0.0364,0.0308,0.0324,0.0253,0.0215,0.0188,0.0129,0.0096,0.0075,0.0041,0.0037,0.0022,-0.0001,-0.003,-0.0036,0.0038,0.0038,0.0038,-0.0032,0,0.0349,0.0391,0.0382,0.0429,0.0452,0.0428,0.0445,0.0437,0.0419,0.0422,0.0354,0.034,0.0258,0.0245,0.0197,0.0109,0.0071,0.0096,-0.0031,-0.0034,-0.0054,-0.0039,-0.0008,-0.0068,-0.0035,-0.0035,-0.0035,0,0.0388,0.0416,0.0468,0.0513,0.0523,0.0545,0.0582,0.0591,0.0576,0.0561,0.0524,0.0466,0.041,0.0337,0.0205,0.0221,0.012,0.0046,0.0041,-0.0011,-0.0068,-0.0088,-0.0075,-0.0041,-0.004,-0.004,-0.0039,0,0.0438,0.0481,0.0533,0.0545,0.058,0.0612,0.0634,0.0639,0.0673,0.0654,0.0674,0.0578,0.0551,0.0411,0.0245,0.0224,0.0098,0.005,-0.0071,-0.0075,-0.0083,-0.0088,-0.004,-0.004,-0.004,-0.0039,-0.0039,0,0.0485,0.053,0.0569,0.0601,0.0682,0.0683,0.0768,0.0769,0.0796,0.086,0.0755,0.0777,0.0569,0.0465,0.0291,0.0109,0.0129,-0.0052,-0.0091,-0.0057,-0.0058,-0.0064,-0.0066,-0.0042,-0.0041,-0.0041,-0.0041,0,0.0532,0.0549,0.0622,0.0682,0.0709,0.0772,0.0864,0.0928,0.0935,0.1015,0.1017,0.0932,0.0797,0.0579,0.036,0.019,0.0006,-0.0068,-0.0014,-0.0046,-0.0158,-0.0155,-0.0205,-0.0206,-0.0208,-0.0209,-0.021,0,0.0559,0.0599,0.069,0.0746,0.0782,0.0875,0.0947,0.099,0.1068,0.1122,0.1172,0.1068,0.101,0.067,0.0354,0.0049,0.0005,-0.0125,-0.0162,-0.014,-0.0173,-0.0168,-0.0164,-0.0147,-0.0147,-0.0148,-0.0148,0,0.0617,0.0648,0.0714,0.0829,0.092,0.1027,0.1137,0.1217,0.1288,0.1353,0.1412,0.137,0.1057,0.0746,0.0323,0.0122,-0.0078,-0.0141,-0.0123,-0.011,-0.0091,-0.0122,-0.0118,-0.015,-0.015,-0.015,-0.015,-0.0149,0.0667,0.0723,0.0812,0.0925,0.1031,0.1166,0.1268,0.1388,0.1518,0.1616,0.1577,0.152,0.1176,0.0632,0.0273,-0.0101,-0.0087,-0.0224,-0.022,-0.0217,-0.0198,-0.0183,-0.0255,-0.0255,-0.0255,-0.0256,-0.0256,0,0.0727,0.079,0.0898,0.1037,0.1161,0.121,0.1387,0.1489,0.1647,0.1718,0.1749,0.143,0.1083,0.0689,0.013,-0.0203,-0.0217,-0.0302,-0.0253,-0.0248,-0.0244,-0.0224,-0.029,-0.0291,-0.0292,-0.0293,0,0,0.076,0.0866,0.0921,0.112,0.1224,0.1397,0.1502,0.164,0.173,0.1784,0.1752,0.167,0.1201,0.0791,0.0339,0.0018,-0.0034,-0.0036,0.0028,0.0146,0.0154,-0.0161,-0.0121,0,0,0,0,0]}],[{"header":{"parameterUnit":"m.s-1","parameterCategory":2,"la1":30.2991,"la2":30.254,"lo1":-89.0895,"lo2":-89.0444,"dy":0.0017,"dx":0.0017,"nx":28,"ny":28,"refTime":"2023-09-22T21:00:00:Z","depth":"4","parameterNumber":2,"parameterNumberName":"U-component_of_CURRENTS"},"data":[0,0,0,0,0,0,0,0,0,0,0,0,0,0,0,0,0,0,0,0,0,0,0,0,0,0,0,0,0,0,0,0,0,0,0,0,0,0,0,0,0,0,0,0,0,0,0,0,0,0,0,0,0,0,0,0,0,0,0.1722,0.1723,0,0.1804,0.1804,0.1805,0.1864,0.1864,0.1865,0.1866,0.1949,0.195,0.1952,0,0,0,0,0,0,0,0,0,0,0,0,0,0.1621,0.1622,0.1722,0.1723,0.1724,0.1804,0.1804,0.1805,0.1864,0.1864,0.1865,0.1866,0.1948,0.195,0.1952,0,0,0,0,0,0,0,0,0,0,0,0,0,0.1678,0.1623,0.1721,0.1764,0.1769,0.1803,0.1804,0.1806,0.1863,0.1864,0.1865,0.1866,0.1948,0.195,0.1952,0.1946,0,0,0.196,0.1961,0,0,0,0,0,0,0,0,0.1674,0.1681,0.1757,0.1762,0.1767,0.1827,0.18,0.1853,0.1863,0.1825,0.1866,0.1867,0.1909,0.1915,0.1924,0.195,0.1953,0.196,0.1961,0.1962,0.1963,0,0,0,0,0,0,0,0.167,0.1678,0.1752,0.1758,0.1764,0.1782,0.1791,0.181,0.1858,0.1828,0.1833,0.1846,0.1912,0.1922,0.1927,0.1955,0.196,0.1962,0.1963,0.1964,0.2083,0.2085,0,0,0,0,0,0,0.1664,0.1674,0.1749,0.1754,0.1725,0.1783,0.1793,0.1804,0.1858,0.1868,0.1845,0.1849,0.1917,0.1924,0.193,0.202,0.1962,0.1964,0.1966,0.2082,0.2084,0.2086,0,0,0,0,0,0,0.1661,0.167,0.1746,0.1718,0.1729,0.1784,0.1796,0.1806,0.1856,0.1871,0.1881,0.1891,0.1918,0.1926,0.198,0.202,0.1965,0.1968,0.208,0.2082,0.2085,0.214,0,0,0,0,0,0,0.1658,0.1668,0.1691,0.1718,0.1731,0.1788,0.1796,0.1807,0.1861,0.1867,0.1913,0.1919,0.192,0.1976,0.1982,0.2022,0.1969,0.2077,0.2081,0.2084,0.2136,0.2144,0.2151,0,0,0,0,0,0.1654,0.1674,0.1692,0.1702,0.1755,0.1789,0.1798,0.1838,0.1862,0.1887,0.1922,0.192,0.2002,0.198,0.1986,0.2028,0.2076,0.208,0.2084,0.2132,0.2142,0.2151,0,0,0,0,0,0,0.1645,0.1683,0.1703,0.1735,0.1772,0.1801,0.1835,0.186,0.1907,0.1926,0.1939,0.1948,0.2011,0.2012,0.1987,0.2072,0.204,0.2045,0.2075,0.2084,0.2092,0.2089,0.1971,0,0,0,0,0,0.1652,0.168,0.1715,0.1747,0.1769,0.181,0.1838,0.1865,0.1902,0.1926,0.1959,0.1995,0.2025,0.205,0.2074,0.2119,0.2129,0.2151,0.2159,0.2165,0.2168,0.2218,0.2231,0.2099,0.2099,0.2099,0,0,0.1656,0.1684,0.17,0.1748,0.1783,0.1819,0.183,0.1883,0.1919,0.1926,0.1999,0.2026,0.2044,0.2095,0.2124,0.2106,0.2212,0.217,0.2176,0.2175,0.2224,0.2237,0.2248,0.2101,0.2101,0.2101,0,0,0.1672,0.1707,0.1736,0.1768,0.1828,0.1852,0.1876,0.1929,0.1964,0.2025,0.2042,0.2093,0.2146,0.2163,0.2176,0.2241,0.2251,0.226,0.2298,0.2347,0.2358,0.2368,0.2408,0.242,0.2264,0.2264,0.2264,0,0.1683,0.1718,0.1751,0.1789,0.1819,0.1871,0.1907,0.1947,0.2013,0.2045,0.206,0.2156,0.2173,0.2228,0.2253,0.2258,0.2288,0.226,0.2357,0.2367,0.2376,0.2414,0.2427,0.2267,0.2267,0.2266,0.2266,0,0.1708,0.1752,0.1775,0.1837,0.1872,0.1915,0.1965,0.2018,0.2071,0.211,0.2194,0.2224,0.2283,0.2298,0.2297,0.2373,0.2375,0.236,0.2331,0.2392,0.2429,0.2442,0.2271,0.227,0.2269,0.2269,0,0,0.169,0.1776,0.1789,0.182,0.1901,0.1925,0.1996,0.2063,0.2122,0.2192,0.2264,0.232,0.2359,0.2376,0.2392,0.2429,0.252,0.2431,0.2432,0.2465,0.2639,0.2488,0.2487,0.2533,0.2535,0.2537,0.2642,0,0.1707,0.1771,0.1814,0.1878,0.1911,0.1974,0.2034,0.2103,0.2174,0.2258,0.2308,0.2391,0.2383,0.2434,0.247,0.2512,0.2557,0.2493,0.2578,0.2581,0.2434,0.2497,0.2544,0.2651,0.2654,0.2657,0.2658,0,0.1713,0.1754,0.1817,0.1896,0.1919,0.1973,0.2072,0.2133,0.2251,0.2315,0.2403,0.2459,0.2544,0.2526,0.2629,0.2597,0.263,0.2647,0.2652,0.2496,0.2452,0.2576,0.2681,0.268,0.2678,0.2676,0.2675,0,0.166,0.1753,0.1801,0.1827,0.1929,0.1978,0.2045,0.2159,0.2224,0.2371,0.2447,0.2545,0.2626,0.2674,0.273,0.2701,0.2831,0.2789,0.2681,0.2671,0.2751,0.2739,0.2863,0.2863,0.2863,0.2863,0.2862,0,0.1635,0.1676,0.1788,0.1807,0.1878,0.1961,0.2058,0.2141,0.2276,0.236,0.2485,0.2561,0.2674,0.2758,0.2774,0.2771,0.2876,0.2696,0.2689,0.2773,0.2763,0.2761,0.2748,0.2866,0.2866,0.2865,0.2864,0,0.1563,0.1639,0.1696,0.1811,0.1856,0.1907,0.2057,0.2122,0.2271,0.2386,0.2446,0.2614,0.2723,0.2809,0.2905,0.2823,0.2836,0.2813,0.292,0.2916,0.2631,0.262,0.2682,0.2677,0.2674,0.267,0.2668,0,0.1528,0.1554,0.1681,0.172,0.178,0.1878,0.195,0.2106,0.2175,0.239,0.2428,0.2608,0.27,0.2714,0.2811,0.2844,0.2811,0.2794,0.2677,0.2627,0.2614,0.2609,0.2603,0.2662,0.2661,0.266,0.2659,0,0.1451,0.1516,0.156,0.1645,0.1723,0.1797,0.1908,0.1942,0.2121,0.2281,0.2362,0.2429,0.2552,0.2617,0.2683,0.2691,0.2781,0.2753,0.2759,0.265,0.2603,0.2593,0.2592,0.2646,0.2648,0.2649,0.265,0,0.14,0.1413,0.1488,0.1549,0.1636,0.1673,0.175,0.1833,0.1922,0.2148,0.2174,0.2361,0.2525,0.2542,0.2592,0.2602,0.2546,0.2436,0.2457,0.2473,0.2354,0.2262,0.2201,0,0,0,0,0,0.1338,0.134,0.1385,0.1431,0.151,0.1568,0.1701,0.1783,0.1956,0.196,0.2057,0.2161,0.2246,0.2344,0.2313,0.2498,0.2555,0.2449,0.2437,0.2573,0.2588,0.2467,0,0,0,0,0,0,0.1292,0.1328,0.134,0.132,0.1335,0.141,0.149,0.1613,0.1622,0.1809,0.1875,0.2022,0.2147,0.2246,0.2269,0.2299,0.2244,0.257,0.2564,0.2564,0.2578,0.259,0.2471,0,0,0,0,0]},{"header":{"parameterUnit":"m.s-1","parameterCategory":2,"la1":30.2991,"la2":30.254,"lo1":-89.0895,"lo2":-89.0444,"dy":0.0017,"dx":0.0017,"nx":28,"ny":28,"refTime":"2023-09-22T21:00:00:Z","depth":"4","parameterNumber":3,"parameterNumberName":"V-component_of_CURRENTS"},"data":[0,0,0,0,0,0,0,0,0,0,0,0,0,0,0,0,0,0,0,0,0,0,0,0,0,0,0,0,0,0,0,0,0,0,0,0,0,0,0,0,0,0,0,0,0,0,0,0,0,0,0,0,0,0,0,0,0,0,0.0173,0.0173,0,0.0128,0.0127,0.0127,0.01,0.01,0.01,0.0099,0.0031,0.003,0.0028,0,0,0,0,0,0,0,0,0,0,0,0,0,0.02,0.02,0.0173,0.0173,0.0172,0.0128,0.0127,0.0127,0.01,0.01,0.0099,0.0099,0.0032,0.003,0.0028,0,0,0,0,0,0,0,0,0,0,0,0,0,0.0175,0.02,0.0173,0.0153,0.0151,0.0128,0.0127,0.0126,0.01,0.01,0.0099,0.0099,0.0033,0.003,0.0028,0.0016,0,0,0.002,0.0019,0,0,0,0,0,0,0,0,0.0177,0.0174,0.0157,0.0154,0.0152,0.0119,0.0112,0.0088,0.01,0.0119,0.0099,0.0099,0.0059,0.0054,0.0047,0.0013,0.001,0.002,0.0018,0.0017,0.0016,0,0,0,0,0,0,0,0.0178,0.0176,0.0155,0.0156,0.0153,0.0134,0.013,0.0107,0.0091,0.0118,0.0116,0.011,0.0057,0.0049,0.0045,0.0009,0.002,0.0018,0.0016,0.0015,-0.0027,-0.0027,0,0,0,0,0,0,0.0186,0.0178,0.0157,0.0154,0.0164,0.0134,0.013,0.013,0.0091,0.0085,0.0111,0.0109,0.0053,0.0048,0.0042,0.0045,0.0017,0.0015,0.0013,-0.0028,-0.0027,-0.0027,0,0,0,0,0,0,0.0187,0.0185,0.0159,0.0164,0.0159,0.0134,0.0134,0.0129,0.0122,0.0086,0.0079,0.0108,0.0053,0.0046,0.0029,0.0042,0.0014,0.0011,-0.0028,-0.0028,-0.0027,0.0039,0,0,0,0,0,0,0.0188,0.0185,0.019,0.0165,0.0159,0.0152,0.0134,0.0128,0.0119,0.0117,0.0082,0.0075,0.0052,0.0033,0.0027,0.0038,0.0009,-0.0029,-0.0028,-0.0027,0.0037,0.0042,0.0047,0,0,0,0,0,0.0189,0.0197,0.019,0.0188,0.0166,0.0152,0.0148,0.0128,0.0119,0.012,0.0099,0.0076,0.0033,0.0032,0.0024,0.0034,-0.0029,-0.0028,-0.0027,0.0034,0.0041,0.0047,0,0,0,0,0,0,0.0207,0.0194,0.0186,0.0189,0.0175,0.0148,0.0147,0.0132,0.0116,0.0115,0.008,0.0072,0.0061,0.0038,0.0037,0.0024,-0.0001,-0.0002,0.0048,0.0054,0.0059,0.0073,0.0007,0,0,0,0,0,0.0215,0.022,0.0199,0.0202,0.0197,0.0173,0.0165,0.0153,0.0134,0.0126,0.0102,0.0077,0.0059,0.0049,0.0026,0.002,-0.0014,0.0021,0.0026,0.003,0.0036,-0.0,0.0002,-0.0024,-0.0024,-0.0024,0,0,0.0222,0.0216,0.0218,0.0206,0.0195,0.0197,0.0168,0.0162,0.0167,0.0121,0.012,0.0091,0.0059,0.0054,0.0047,0.0037,0.0019,0.0032,0.0036,0.0039,0.0001,0.0003,0.0005,-0.0023,-0.0023,-0.0024,0,0,0.0241,0.0235,0.0246,0.024,0.0227,0.0215,0.0216,0.0194,0.0188,0.0181,0.0151,0.0133,0.0103,0.0086,0.0073,0.0091,0.0044,0.0082,0.0122,0.0087,0.0089,0.009,0.0047,0.0044,0.0088,0.0088,0.0088,0,0.0249,0.0262,0.0246,0.0254,0.0258,0.0228,0.0242,0.0232,0.0207,0.0209,0.019,0.0149,0.0121,0.0116,0.0123,0.0104,0.0071,0.0104,0.0094,0.0095,0.0095,0.005,0.0046,0.0091,0.0091,0.009,0.009,0,0.0274,0.0286,0.0293,0.0299,0.03,0.0306,0.0294,0.0294,0.0282,0.0268,0.0257,0.0216,0.0194,0.0181,0.0158,0.015,0.012,0.0103,0.0081,0.0102,0.0053,0.0047,0.0096,0.0095,0.0094,0.0093,0,0,0.0291,0.0308,0.0312,0.0332,0.0328,0.0337,0.0349,0.0354,0.037,0.0335,0.0346,0.0308,0.028,0.0263,0.0227,0.0196,0.0166,0.0156,0.0152,0.0118,0.0079,0.0058,0.0049,0.0145,0.0144,0.0144,0.0043,0,0.0317,0.0352,0.0353,0.0394,0.0414,0.0405,0.0423,0.0424,0.0416,0.0416,0.0371,0.0364,0.0313,0.0307,0.0267,0.0193,0.0155,0.0194,0.006,0.0056,0.0039,0.0043,0.0142,0.0039,0.0037,0.0036,0.0036,0,0.0341,0.0368,0.0413,0.0457,0.0466,0.0488,0.0525,0.0538,0.0528,0.0519,0.0494,0.045,0.0405,0.0359,0.0239,0.0264,0.018,0.0115,0.0109,0.0063,0.0025,0.0013,0.0025,0.0026,0.0026,0.0027,0.0028,0,0.0371,0.0413,0.046,0.0471,0.0509,0.054,0.0564,0.0573,0.0603,0.0587,0.0594,0.0522,0.0493,0.038,0.0242,0.024,0.0097,0.0078,-0.0025,-0.0028,-0.0008,-0.0008,-0.0009,-0.0009,-0.0008,-0.0008,-0.0008,0,0.0397,0.0436,0.0483,0.0509,0.0578,0.0591,0.066,0.0666,0.0689,0.0724,0.0654,0.0649,0.0497,0.0395,0.0261,0.0099,0.0109,-0.0019,-0.0052,0.0021,0.0025,-0.0013,-0.0012,-0.0012,-0.0011,-0.001,-0.001,0,0.0417,0.0442,0.0505,0.0566,0.0594,0.0648,0.0733,0.0778,0.0787,0.0828,0.0827,0.0745,0.0607,0.0438,0.0249,0.0134,-0.0023,-0.0085,0.0002,-0.0025,-0.0132,-0.0127,-0.0205,-0.0206,-0.0207,-0.0208,-0.0209,0,0.0428,0.0461,0.0552,0.06,0.0634,0.0719,0.0777,0.0823,0.0872,0.0883,0.0899,0.0789,0.0706,0.0426,0.0239,-0.0025,-0.0064,-0.0148,-0.0138,-0.0126,-0.0151,-0.0144,-0.0137,-0.0211,-0.0212,-0.0212,-0.0212,0,0.0451,0.0486,0.0541,0.0642,0.0719,0.0809,0.0895,0.0938,0.0986,0.0994,0.0958,0.0816,0.0654,0.0429,0.0219,0.0031,-0.0093,-0.0162,-0.0161,-0.0152,-0.0135,-0.0157,-0.0149,-0.0217,-0.0216,-0.0216,-0.0216,0,0.0474,0.0515,0.0591,0.0681,0.0779,0.087,0.0917,0.0973,0.1022,0.1028,0.1011,0.0839,0.0744,0.0457,0.0266,0.0075,0.0025,-0.0035,-0.0041,-0.0038,0.0036,0.0083,0.0041,0,0,0,0,0,0.0491,0.0538,0.0621,0.0724,0.0822,0.0883,0.0982,0.102,0.1063,0.1048,0.1036,0.0884,0.0604,0.0485,0.0289,0.0224,-0.0021,-0.0013,-0.0095,-0.0242,-0.0237,-0.0181,0,0,0,0,0,0,0.0501,0.0577,0.0619,0.0744,0.0817,0.0933,0.0998,0.1028,0.1023,0.103,0.0886,0.0827,0.0553,0.0712,0.0282,0.0224,0.0144,-0.0139,-0.0144,-0.0245,-0.024,-0.0236,-0.0176,0,0,0,0,0]}]]